Location: Newark
(49.8969°N, 3.3422°E)
Time: 00:23:35
(UTC+00:00)

deb Explorer IX - Pass Details

Date: 20 January 2020
Orbit: 549 x 1099 km, 38.8° (Epoch: 24 February)

Event Time Altitude Azimuth Distance (km) Brightness Sun altitude
Rises 02:56:26 0° 259° (W) 3,856 - -43.9°
Reaches altitude 10° 02:59:38 10° 249° (WSW) 2,849 - -43.5°
Maximum altitude 03:05:22 28° 193° (SSW) 1,726 - -42.6°
Drops below altitude 10° 03:10:34 10° 136° (SE) 2,561 - -41.8°
Exits shadow 03:11:27 - 132° (SE) 2,824 ? -41.7°
Sets 03:13:17 0° 125° (SE) 3,405 ? -41.4°
